Back to catalog

DELTA 1 DEB

AlivePO
NORAD 9567·DEBRIS·🇺🇸 United States

Launched Jan 22, 1975 from Vandenberg Space Force Base

Loading…

Next Passes (next 24 hours)

TLE

FreshSource: Space-Track

Epoch: Sep 14, 2026, 09:16 UTC

1 09567U 75004FP  26257.38624140  .00000049  00000-0  36507-4 0  9991
2 09567  97.8926 310.6583 0124895 206.8104 152.6585 14.21072630620013

Track DELTA 1 DEB in real time with AllMySat

Download on the App Store